Miscellaneous Local Product
Issued by NWS Hastings, NE

Home | Current Version | Previous Version | Text Only | Print | Product List | Glossary On
Versions: 1 2 3 4 5 6 7 8 9 10 11 12 13 14 15 16 17 18 19 20 21 22 23 24 25 26 27 28 29 30 31 32 33 34 35 36 37 38 39 40 41 42 43 44 45 46 47 48 49 50
107
AXUS43 KGID 271002
MISGRI

GID CWA HOURLY WEATHER ROUNDUP
NATIONAL WEATHER SERVICE HASTINGS NE
500 AM CDT TUE SEP 27 2016

NOTE: "FAIR" INDICATES FEW OR NO CLOUDS BELOW 12,000 FEET WITH NO
SIGNIFICANT WEATHER AND/OR OBSTRUCTIONS TO VISIBILITY.

...SOUTH CENTRAL NEBRASKA...

CITY           SKY/WX    TMP DP  RH WIND       PRES   REMARKS
GRAND ISLAND   CLEAR     49  42  77 W9        30.08F
HASTINGS       CLEAR     48  41  76 CALM      30.10S
KEARNEY        CLEAR     48  39  71 W6        30.09F
ORD            CLEAR     41  37  86 NW3       30.08F
YORK           CLEAR     48  45  87 CALM      30.07F
AURORA         CLEAR     46  44  93 CALM      30.08S FOG
LEXINGTON      CLEAR     42  39  89 NW5       30.12F
HOLDREGE       CLEAR     47  42  83 NW6       30.10F
HEBRON         CLEAR     47  44  90 CALM      30.06F

...NEBRASKA PANHANDLE...

CITY           SKY/WX    TMP DP  RH WIND       PRES   REMARKS
CHADRON        CLEAR     40  37  89 S5        30.15F
ALLIANCE       CLOUDY    36  35  96 W5        30.17F WCI  32
SCOTTSBLUFF    CLOUDY    42  39  89 CALM      30.19F
SIDNEY         CLEAR     42  38  85 NW7       30.21F

...WESTERN AND NORTH CENTRAL NEBRASKA...

CITY           SKY/WX    TMP DP  RH WIND       PRES   REMARKS
VALENTINE      CLEAR     40  36  86 W7        30.12S
AINSWORTH      CLEAR     45  40  83 W7        30.11S
ONEILL         CLEAR     45  40  85 W3        30.08S
BROKEN BOW     CLOUDY    42  40  92 S3        30.11S
IMPERIAL       CLEAR     47  40  76 NW6       30.17F
NORTH PLATTE   CLEAR     41  38  89 NW3       30.15F
MCCOOK         CLEAR     48  42  80 W9        30.13F

...EASTERN NEBRASKA...

CITY           SKY/WX    TMP DP  RH WIND       PRES   REMARKS
NORFOLK        CLEAR     46  41  82 W6        30.05F
SO SIOUX CITY  PTCLDY    49  43  80 N3        30.03S
TEKAMAH        CLEAR     46  42  86 W6        30.03S
COLUMBUS       CLEAR    N/A N/A N/A CALM      30.06S
ALBION         CLEAR     41  39  92 NW5       30.07S
OMAHA EPPLEY   CLEAR     55  46  71 CALM      30.04S
OFFUTT AFB     CLEAR     48  47  98 CALM      30.03F
MILLARD        CLEAR     51  48  92 CALM      30.04S
LINCOLN        CLEAR     47  44  90 N3        30.07F
NEBRASKA CITY  CLEAR     54  37  52 W5        30.04S
BEATRICE       CLEAR     46  45  94 CALM      30.05F
FALLS CITY     CLEAR     51  46  83 CALM      30.03F

...NORTHERN KANSAS...

CITY           SKY/WX    TMP DP  RH WIND       PRES   REMARKS
GOODLAND       CLEAR     49  40  71 CALM      30.18F
HILL CITY      CLEAR     48  43  82 W6        30.12S
NORTON         SUNNY     45  37  76 CALM      30.10F
PHILLIPSBURG   CLEAR     48  45  87 W7        30.10S
SMITH CENTER   CLEAR     45  43  93 NW3       30.09F
HAYS           CLEAR     45  34  65 W6        30.10F
RUSSELL        CLEAR     50  43  77 SW9       30.08F
CONCORDIA      CLEAR     54  45  71 SW9       30.07F
SALINA         CLEAR     53  45  74 S5        30.09F
TOPEKA         CLEAR     51  47  86 CALM      30.08S



USA.gov is the U.S. government's official web portal to all federal, state and local government web resources and services.